Back to catalog

FAISAT 2V

AliveCommunicationsPO
NORAD 24954·PAYLOAD·🇺🇸 United States

Launched Sep 23, 1997 from Plesetsk Cosmodrome

Loading…

Next Passes (next 24 hours)

TLE

FreshSource: Space-Track

Epoch: Sep 14, 2026, 13:35 UTC

1 24954U 97052B   26257.56632218  .00000052  00000-0  34150-4 0  9996
2 24954  82.9187 277.1573 0040555  61.4349 110.9349 13.80382185459339

Track FAISAT 2V in real time with AllMySat

Download on the App Store